{"data":{"norad_id":58486,"epoch":"2026-09-20T09:38:57.361056Z","epoch_age_seconds":155203,"freshness":"FRESH","line1":"1 58486U 23186P   26263.40205279  .00000674  00000+0  34040-4 0  9990","line2":"2 58486  43.0029  44.1244 0001506 267.5613  92.5066 15.27573634155666","mean_motion":15.27573634,"eccentricity":0.0001506,"inclination_deg":43.0029,"raan_deg":44.1244,"arg_perigee_deg":267.5613,"mean_anomaly_deg":92.5066,"bstar":3.404e-5,"rev_number":15566,"period_min":94.267141560261,"perigee_km":482.03486070318,"apogee_km":484.10145569683,"semimajor_km":6861.2051582,"source":"CELESTRAK","updated_at":"2026-09-21T09:00:33.882786Z"}}